Location: Seattle
(47.6064°N, 122.3308°W)
Time: 00:58:42
(UTC-08:00)

Tiros 1 - Pass Details

Date: 05 December 2020
Orbit: 630 x 663 km, 48.4° (Epoch: 28 January)

Event Time Altitude Azimuth Distance (km) Brightness Sun altitude
Rises 14:28:19 0° 254° (WSW) 2,990 11.4 12.4°
Reaches altitude 10° 14:30:40 10° 254° (WSW) 2,079 10.7 12.2°
Maximum altitude 14:35:29 85° 167° (SSE) 670 7.5 11.7°
Drops below altitude 10° 14:40:18 10° 79° (ENE) 2,079 9.4 11.2°
Sets 14:42:39 0° 79° (ENE) 2,989 10.1 11.0°
